Regional Weather Roundup
Issued by NWS

Home | Current Version | Previous Version | Text Only | Print | Product List | Glossary Off
Versions: 1 2 3 4 5 6 7 8 9 10 11 12 13 14 15 16 17 18 19 20 21 22 23 24 25 26 27 28 29 30 31 32 33 34 35 36 37 38 39 40 41 42 43 44 45 46 47 48 49 50

824
ASUS43 KLSX 282210
RWRMO

WEATHER SUMMARY FOR MISSOURI
NATIONAL WEATHER SERVICE SPRINGFIELD MO
500 PM CDT FRI APR 28 2017

NOTE: "FAIR" INDICATES FEW OR NO CLOUDS BELOW 12,000 FEET WITH NO
       SIGNIFICANT WEATHER AND/OR OBSTRUCTIONS TO VISIBILITY.
       CURRENT SKY AND/OR WEATHER CONDITIONS ARE NOT AVAILABLE FOR
       CHILLICOTHE AND FARMINGTON.

MOZ001>031-035>038-043-044-053-054-282300-
...NORTHERN AND WESTERN MISSOURI...

CITY           SKY/WX    TMP DP  RH WIND       PRES   REMARKS
KANSAS CTY INT DRZL/FOG  54  53  97 NE13      29.73R VSB 1/4
KANSAS C DTWN  CLOUDY    65  58  78 N3        29.71R
LEE`S SUMMIT   CLOUDY    63  57  81 W6        29.72R
ST JOSEPH      CLOUDY    47  46  97 NE13      29.79R
CHILLICOTHE      N/A     49  47  93 N9G17     29.78R
KIRKSVILLE     CLOUDY    49  31  49 N13       29.78R HAZE

$$
MOZ066>068-077>081-088>096-101>105-282300-
...SOUTHWEST MISSOURI...

CITY           SKY/WX    TMP DP  RH WIND       PRES   REMARKS
SPRINGFIELD    CLOUDY    64  61  90 SE9       29.71S
JOPLIN         CLOUDY    67  61  81 SE5       29.71R
BRANSON        CLOUDY    63  63 100 CALM      29.74R

$$
MOZ032>034-039>042-045>050-055>058-069>072-282300-
...CENTRAL MISSOURI...

CITY           SKY/WX    TMP DP  RH WIND       PRES   REMARKS
COLUMBIA       CLOUDY    59  57  93 SE8       29.73S
JEFFERSON CITY CLOUDY    61  57  87 E8        29.73F
ROLLA          CLOUDY    58  58 100 E9        29.74S FOG
SEDALIA        CLOUDY    63  60  90 SE6       29.72F
WHITEMAN AFB   CLOUDY    62  62 100 SW6       29.71R
OSAGE BEACH    CLOUDY    63  61  94 SE3       29.72F

$$
MOZ051-052-059>065-282300-
...EAST CENTRAL MISSOURI...

CITY           SKY/WX    TMP DP  RH WIND       PRES   REMARKS
ST LOUIS INTL  CLOUDY    59  55  88 E7        29.78S
SPIRIT OF STL  CLOUDY    58  57  97 E6        29.77R
ST CHARLES     CLOUDY    57  56  96 E7        29.77S

$$
MOZ072>076-082>087-097>100-106>115-282300-
...SOUTH CENTRAL AND SOUTHEAST MISSOURI...

CITY           SKY/WX    TMP DP  RH WIND       PRES   REMARKS
CAPE GIRARDEAU CLOUDY    74  69  85 S9        29.75R
FARMINGTON     LGT RAIN  62  61  96 S5        29.78R FOG
POPLAR BLUFF   CLOUDY    70  68  93 NW3       29.75R
WEST PLAINS    CLOUDY    63  62  97 S6        29.76F

$$




USA.gov is the U.S. government's official web portal to all federal, state and local government web resources and services.